• Join FlightAware (Why Join?)
  • Login
  • US Flag 
03:20AM EDT


 

Airport Tracker/Info


-or-


 

Live Flight TrackerFlight Track Log ✈ UAL906 ✈ 16-Jun-2013 ✈ EDDF / FRA - KORD

Flight Track Log - Related Links

Times and Time Zones

All times are in EDT time to prevent confusion due to time zone crossing. See the UAL906 flight status page for this flight to view local times or setup timezone preferences in your user account.

Time Position Orientation Groundspeed Altitude Reporting Facility
EDT Latitude Longitude Course Direction KTS MPH feet Rate Location/Type
07:02AM 50.0470 8.5690 295° West 10 12  Level FlightAware
07:03AM 50.0470 8.5700 90° East 11 13  Level FlightAware
07:03AM 50.0470 8.5690 270° West 9 10  Level FlightAware
07:06AM 50.1962 8.1768 300° West  Level FlightAware Approximate
07:06AM 50.0460 8.5690 298° West 12 14  Level FlightAware
07:07AM 50.2679 8.0296 298° West  Level FlightAware Approximate
07:07AM 50.0450 8.5680 213° Southwest 29 33  Level FlightAware
07:08AM 50.0430 8.5680 180° South 27 31  Level FlightAware
07:08AM 50.0430 8.5690 90° East 22 25  Level FlightAware
07:09AM 50.0430 8.5720 90° East 29 33  Level FlightAware
07:09AM 50.0440 8.5740 52° Northeast 16 18  Level FlightAware
07:10AM 50.0440 8.5750 90° East 20 23  Level FlightAware
07:10AM 50.0450 8.5790 69° East 34 39  Level FlightAware
07:11AM 50.0460 8.5840 73° East 26 30 60 Level FlightAware
07:13AM 50.0470 8.5850 33° Northeast 21 24 60 Level FlightAware
07:13AM 50.0460 8.5860 147° Southeast 22 25 60 Level FlightAware
07:14AM 50.0450 8.5850 213° Southwest 2 2 120 Level FlightAware
07:16AM 50.0430 8.5780 246° West 94 108 120 Level FlightAware
07:16AM 50.0380 8.5580 249° West 600 Level FlightAware
07:17AM 50.0350 8.5460 249° West 180 207 400 2,520 Climbing FlightAware
07:17AM 50.0270 8.5060 253° West 181 208 1,800 1,860 Climbing FlightAware
07:18AM 50.0300 8.4570 275° West 3,100 1,380 Climbing FlightAware
07:18AM 50.0260 8.4090 263° West 214 246 3,500 1,020 Climbing FlightAware
07:19AM 50.0200 8.3590 259° West 239 275 4,200 1,020 Climbing FlightAware
07:19AM 50.0170 8.3390 257° West 253 291 4,500 2,040 Climbing FlightAware
07:20AM 50.0150 8.2670 268° West 261 300 6,000 1,920 Climbing FlightAware
07:20AM 50.0230 8.2390 294° West 254 292 6,800 2,520 Climbing FlightAware
07:21AM 50.0510 8.1450 295° West 257 296 9,000 3,180 Climbing FlightAware
07:21AM 50.0780 8.0830 304° West 273 314 10,300 1,080 Climbing FlightAware
07:22AM 50.1170 8.0060 308° West 320 368 10,600 960 Climbing FlightAware
07:23AM 50.1550 7.9310 308° West 336 387 11,700 1,800 Climbing FlightAware
07:24AM 50.2020 7.8430 310° West 346 398 13,200 1,920 Climbing FlightAware
07:24AM 50.2420 7.7650 309° West 357 411 14,500 1,740 Climbing FlightAware
07:25AM 50.3070 7.6990 327° Northwest 371 427 16,100 1,740 Climbing FlightAware
07:26AM 50.3900 7.6450 337° Northwest 382 440 17,300 1,680 Climbing FlightAware
07:27AM 50.4610 7.5970 337° Northwest 389 448 18,400 1,440 Climbing FlightAware
07:27AM 50.5260 7.5520 336° Northwest 391 450 19,400 1,380 Climbing FlightAware
07:28AM 50.6030 7.4850 331° Northwest 402 463 20,400 1,320 Climbing FlightAware
07:29AM 50.6670 7.4170 326° Northwest 407 468 21,300 1,380 Climbing FlightAware
07:29AM 50.7290 7.3530 327° Northwest 405 466 22,300 1,320 Climbing FlightAware
07:30AM 50.8190 7.2460 323° Northwest 408 470 23,500 1,080 Climbing FlightAware
07:31AM 50.8640 7.1520 307° West 401 461 24,200 1,080 Climbing FlightAware
07:32AM 50.9110 7.0370 303° West 411 473 25,100 1,140 Climbing FlightAware
07:32AM 50.9500 6.9420 303° West 416 479 25,800 1,020 Climbing FlightAware
07:33AM 51.0000 6.8200 303° West 423 487 26,600 1,020 Climbing FlightAware
07:34AM 51.0390 6.7230 303° West 429 494 27,200 1,020 Climbing FlightAware
07:34AM 51.0810 6.6180 303° West 433 498 27,900 960 Climbing FlightAware
07:35AM 51.1300 6.4950 302° West 437 503 28,600 900 Climbing FlightAware
07:36AM 51.1780 6.3760 303° West 442 509 29,300 900 Climbing FlightAware
07:37AM 51.2210 6.2660 302° West 444 511 29,900 900 Climbing FlightAware
07:37AM 51.2660 6.1520 302° West 448 516 30,500 780 Climbing FlightAware
07:38AM 51.3080 6.0460 302° West 452 520 31,000 1,080 Climbing FlightAware
07:39AM 51.3700 5.9260 310° West 457 526 32,100 1,140 Climbing FlightAware
07:39AM 51.4350 5.8400 320° Northwest 461 531 32,700 960 Climbing FlightAware
07:40AM 51.5020 5.7550 322° Northwest 455 524 33,500 840 Climbing FlightAware
07:41AM 51.5840 5.6510 322° Northwest 453 521 34,000 300 Climbing FlightAware
07:42AM 51.6540 5.5630 322° Northwest 451 519 34,000  Level FlightAware
07:42AM 51.7240 5.4740 322° Northwest 451 519 34,000  Level FlightAware
07:43AM 51.7850 5.3950 322° Northwest 452 520 34,000  Level FlightAware
07:43AM 51.7943 5.3794 322° Northwest 482 555 34,000  Level FlightAware UK
07:44AM 51.8540 5.3060 321° Northwest 453 521 34,000 -120 Level FlightAware
07:44AM 51.9027 5.2406 321° Northwest 482 555 33,900  Descending FlightAware UK
07:44AM 51.9270 5.2120 321° Northwest 453 521 34,000 60 Climbing FlightAware
07:45AM 52.0180 5.0940 321° Northwest 455 524 34,000  Level FlightAware
07:46AM 52.0840 5.0080 321° Northwest 455 524 34,000  Level FlightAware
07:47AM 52.1510 4.9200 321° Northwest 454 522 34,000  Level FlightAware
07:47AM 52.2240 4.8240 321° Northwest 455 524 34,000 -180 Level FlightAware
07:47AM 52.2272 4.8184 321° Northwest 486 559 33,900 -240 Descending FlightAware UK
07:48AM 52.2756 4.7532 321° Northwest 486 559 33,900 120 Level FlightAware UK
07:48AM 52.2840 4.7450 321° Northwest 455 524 34,000  Climbing FlightAware
07:48AM 52.3253 4.6892 321° Northwest 486 559 33,900  Descending FlightAware UK
07:49AM 52.3640 4.6380 321° Northwest 453 521 34,000 60 Climbing FlightAware
07:49AM 52.4280 4.5530 321° Northwest 453 521 34,000 -120 Level FlightAware
07:50AM 52.4632 4.5092 321° Northwest 484 557 33,900  Descending FlightAware UK
07:50AM 52.4680 4.5000 321° Northwest 453 521 34,000 60 Climbing FlightAware
07:51AM 52.5690 4.3650 321° Northwest 452 520 34,000  Level FlightAware
07:52AM 52.6340 4.2770 321° Northwest 452 520 34,000  Level FlightAware
07:52AM 52.6980 4.1900 321° Northwest 451 519 34,000  Level FlightAware
07:53AM 52.7460 4.1250 321° Northwest 451 519 34,000  Level FlightAware
07:53AM 52.8010 4.0490 320° Northwest 450 518 34,000  Level FlightAware
07:54AM 52.8870 3.9320 321° Northwest 448 516 34,000 -120 Level FlightAware
07:55AM 52.9259 3.8804 321° Northwest 488 562 33,900  Descending FlightAware UK
07:55AM 52.9440 3.8540 321° Northwest 447 514 34,000 60 Climbing FlightAware
07:55AM 53.0020 3.7740 320° Northwest 446 513 34,000  Level FlightAware
07:56AM 53.0396 3.7230 320° Northwest 486 559 34,000  Level FlightAware UK
07:56AM 53.0730 3.6750 320° Northwest 445 512 34,000  Level FlightAware
07:57AM 53.1058 3.6311 320° Northwest 484 557 34,000  Level FlightAware UK
07:57AM 53.1260 3.6020 320° Northwest 445 512 34,000  Level FlightAware
07:57AM 53.1530 3.5654 320° Northwest 484 557 34,000  Level FlightAware UK
07:58AM 53.2030 3.4950 320° Northwest 444 511 34,000 -180 Level FlightAware
07:58AM 53.2280 3.4608 320° Northwest 482 555 33,900  Descending FlightAware UK
07:58AM 53.2640 3.4250 331° Northwest 464 534 34,000  Climbing FlightAware
07:58AM 53.2720 3.4193 331° Northwest 484 557 33,900  Descending FlightAware UK
07:59AM 53.3680 3.3610 340° North 477 549 34,000 60 Climbing FlightAware
08:00AM 53.4500 3.3140 341° North 476 548 34,000  Level FlightAware
08:00AM 53.5310 3.2560 337° Northwest 457 526 34,000  Level FlightAware
08:01AM 53.5623 3.2226 337° Northwest 482 555 34,000  Level FlightAware UK
08:01AM 53.6010 3.1600 337° Northwest 434 499 34,000  Level FlightAware
08:02AM 53.6426 3.0743 337° Northwest 484 557 34,000  Level FlightAware UK
08:02AM 53.6530 3.0530 337° Northwest 427 491 34,000 -240 Level FlightAware
08:02AM 53.6796 2.9968 337° Northwest 484 557 33,900  Descending FlightAware UK
08:03AM 53.7070 2.9370 337° Northwest 425 489 34,000 60 Climbing FlightAware
08:03AM 53.7530 2.8410 337° Northwest 480 552 34,000  Level FlightAware UK
08:03AM 53.7550 2.8360 337° Northwest 426 490 34,000  Level FlightAware
08:04AM 53.8090 2.7200 308° West 427 491 34,000  Level FlightAware
08:04AM 53.8500 2.6330 308° West 427 491 34,000  Level FlightAware
08:05AM 53.8631 2.6058 308° West 480 552 34,000  Level FlightAware UK
08:05AM 53.9067 2.5116 308° West 482 555 34,000  Level FlightAware UK
08:05AM 53.9060 2.5120 308° West 428 493 34,000  Level FlightAware
08:06AM 53.9506 2.4166 308° West 482 555 34,000  Level FlightAware UK
08:06AM 53.9770 2.3590 308° West 428 493 34,000  Level FlightAware
08:07AM 54.0309 2.2420 308° West 480 552 34,000  Level FlightAware UK
08:07AM 54.0290 2.2460 308° West 429 494 34,000  Level FlightAware
08:08AM 54.0747 2.1460 308° West 482 555 34,000  Level FlightAware UK
08:08AM 54.0720 2.1530 308° West 431 496 34,000  Level FlightAware
08:08AM 54.1111 2.0657 308° West 482 555 34,000  Level FlightAware UK
08:08AM 54.1350 2.0140 308° West 430 495 34,000  Level FlightAware
08:09AM 54.1840 1.9047 308° West 482 555 34,000  Level FlightAware UK
08:09AM 54.1830 1.9070 308° West 431 496 34,000  Level FlightAware
08:10AM 54.2348 1.7923 308° West 480 552 34,000  Level FlightAware UK
08:10AM 54.2370 1.7890 308° West 431 496 34,000  Level FlightAware
08:10AM 54.2786 1.6952 308° West 480 552 34,000  Level FlightAware UK
08:10AM 54.2870 1.6760 308° West 433 498 34,000  Level FlightAware
08:11AM 54.3296 1.5812 308° West 484 557 34,000  Level FlightAware UK
08:11AM 54.3340 1.5730 308° West 434 499 34,000 -120 Level FlightAware
08:12AM 54.3952 1.4346 308° West 486 559 33,900  Descending FlightAware UK
08:12AM 54.4050 1.4140 308° West 433 498 34,000 60 Climbing FlightAware
08:13AM 54.4540 1.3010 307° West 431 496 34,000  Level FlightAware
08:13AM 54.4850 1.2320 308° West 430 495 34,000  Level FlightAware
08:14AM 54.5321 1.1246 308° West 486 559 34,000  Level FlightAware UK
08:14AM 54.5360 1.1160 308° West 427 491 34,000 -180 Level FlightAware
08:14AM 54.5748 1.0270 308° West 484 557 33,900  Descending FlightAware UK
08:15AM 54.5820 1.0110 308° West 427 491 34,000  Climbing FlightAware
08:15AM 54.6313 0.8966 308° West 482 555 33,900  Descending FlightAware UK
08:15AM 54.6390 0.8800 308° West 426 490 34,000 120 Climbing FlightAware
08:16AM 54.6807 0.7832 308° West 482 555 34,000  Level FlightAware UK
08:16AM 54.6870 0.7700 308° West 426 490 34,000  Level FlightAware
08:17AM 54.7370 0.6520 306° West 426 490 34,000 -120 Level FlightAware
08:17AM 54.7583 0.6036 306° West 480 552 33,900  Descending FlightAware UK
08:17AM 54.7870 0.5370 306° West 426 490 34,000 60 Climbing FlightAware
08:18AM 54.8320 0.4330 306° West 428 493 34,000 -180 Level FlightAware
08:18AM 54.8354 0.4234 306° West 476 548 33,900 -180 Descending FlightAware UK
08:19AM 54.8774 0.3247 306° West 476 548 33,900 120 Level FlightAware UK
08:19AM 54.8850 0.3080 306° West 429 494 34,000  Climbing FlightAware
08:19AM 54.9199 0.2247 306° West 476 548 33,900  Descending FlightAware UK
08:20AM 54.9350 0.1880 306° West 432 497 34,000 120 Climbing FlightAware
08:20AM 54.9626 0.1242 306° West 474 545 34,000  Level FlightAware UK
08:20AM 54.9450 0.1640 306° West 432 497 34,000  Level FlightAware
08:20AM 55.0049 0.0232 306° West 476 548 34,000  Level FlightAware UK
08:21AM 55.0290 -0.0340 306° West 437 503 34,000 -120 Level FlightAware
08:21AM 55.0762 -0.1477 306° West 474 545 33,900  Descending FlightAware UK
08:22AM 55.0830 -0.1640 306° West 440 506 34,000 120 Climbing FlightAware
08:22AM 55.1189 -0.2507 306° West 476 548 34,000  Level FlightAware UK
08:22AM 55.1250 -0.2660 306° West 443 510 34,000  Level FlightAware
08:23AM 55.1695 -0.3722 306° West 476 548 34,000  Level FlightAware UK
08:23AM 55.1850 -0.4110 306° West 445 512 34,000  Level FlightAware
08:23AM 55.2199 -0.4951 306° West 478 550 34,000  Level FlightAware UK
08:24AM 55.2320 -0.5230 306° West 447 514 34,000  Level FlightAware
08:24AM 55.2870 -0.6580 306° West 447 514 34,000 -120 Level FlightAware
08:25AM 55.3352 -0.7768 306° West 482 555 33,900  Descending FlightAware UK
08:25AM 55.3350 -0.7750 306° West 446 513 34,000  Climbing FlightAware
08:26AM 55.3783 -0.8830 306° West 480 552 33,900  Descending FlightAware UK
08:26AM 55.3830 -0.8960 306° West 447 514 34,000 120 Climbing FlightAware
08:26AM 55.4207 -0.9883 306° West 480 552 34,000  Level FlightAware UK
08:26AM 55.4320 -1.0150 306° West 447 514 34,000  Level FlightAware
08:27AM 55.4566 -1.0775 306° West 480 552 34,000  Level FlightAware UK
08:27AM 55.4850 -1.1470 306° West 447 514 34,000  Level FlightAware
08:28AM 55.5380 -1.2800 305° West 446 513 34,000 -120 Level FlightAware
08:28AM 55.5632 -1.3443 305° West 482 555 33,900  Descending FlightAware UK
08:29AM 55.5860 -1.4010 305° West 445 512 34,000 60 Climbing FlightAware
08:29AM 55.6310 -1.5160 305° West 440 506 34,000  Level FlightAware
08:30AM 55.6688 -1.6118 305° West 482 555 34,000  Level FlightAware UK
08:30AM 55.6850 -1.6520 305° West 440 506 34,000  Level FlightAware
08:31AM 55.7260 -1.7580 305° West 439 505 34,000  Level FlightAware
08:31AM 55.7664 -1.8617 305° West 482 555 34,000  Level FlightAware UK
08:31AM 55.7780 -1.8920 305° West 438 504 34,000  Level FlightAware
08:32AM 55.8081 -1.9694 305° West 482 555 34,000  Level FlightAware UK
08:32AM 55.8310 -2.0270 305° West 437 503 34,000  Level FlightAware
08:33AM 55.8690 -2.1280 304° West 436 502 34,000  Level FlightAware
08:33AM 55.9113 -2.2375 304° West 478 550 34,000  Level FlightAware UK
08:33AM 55.9200 -2.2600 304° West 436 502 34,000  Level FlightAware
08:34AM 55.9456 -2.3271 304° West 478 550 34,000  Level FlightAware UK
08:34AM 55.9730 -2.3990 304° West 439 505 34,000  Level FlightAware
08:35AM 56.0050 -2.4830 304° West 439 505 34,000 -120 Level FlightAware
08:35AM 56.0340 -2.5602 304° West 480 552 33,900  Descending FlightAware UK
08:36AM 56.0720 -2.6610 304° West 438 504 34,000 60 Climbing FlightAware
08:36AM 56.1090 -2.7580 304° West 439 505 34,000  Level FlightAware
08:36AM 56.1155 -2.7763 304° West 478 550 34,000  Level FlightAware UK
08:37AM 56.1570 -2.8870 304° West 438 504 34,000  Level FlightAware
08:37AM 56.1826 -2.9567 304° West 478 550 34,000  Level FlightAware UK
08:38AM 56.2120 -3.0350 304° West 439 505 34,000  Level FlightAware
08:38AM 56.2363 -3.1014 304° West 478 550 34,000  Level FlightAware UK
08:38AM 56.2570 -3.1590 304° West 440 506 34,000  Level FlightAware
08:39AM 56.2766 -3.2109 304° West 480 552 34,000  Level FlightAware UK
08:39AM 56.3020 -3.2800 304° West 440 506 34,000  Level FlightAware
08:40AM 56.3437 -3.3939 304° West 480 552 34,000  Level FlightAware UK
08:40AM 56.3470 -3.4030 304° West 435 501 34,000  Level FlightAware
08:40AM 56.3705 -3.4911 304° West 480 552 34,000  Level FlightAware UK
08:41AM 56.3800 -3.5500 304° West 433 498 34,000  Level FlightAware
08:41AM 56.3980 -3.6950 283° West 430 495 34,000 -120 Level FlightAware
08:41AM 56.4064 -3.7633 283° West 480 552 33,900  Descending FlightAware UK
08:42AM 56.4140 -3.8290 283° West 431 496 34,000 120 Climbing FlightAware
08:42AM 56.4262 -3.9320 283° West 478 550 34,000  Level FlightAware UK
08:43AM 56.4330 -3.9870 283° West 432 497 34,000 60 Level FlightAware
08:43AM 56.4470 -4.1080 282° West 429 494 34,100 240 Climbing FlightAware
08:44AM 56.4616 -4.2260 282° West 474 545 34,300 420 Climbing FlightAware UK
08:44AM 56.4650 -4.2520 282° West 433 498 34,400 360 Climbing FlightAware
08:45AM 56.4830 -4.4070 282° West 439 505 34,700 360 Climbing FlightAware
08:45AM 56.4867 -4.4398 282° West 476 548 34,700 360 Level FlightAware UK
08:45AM 56.5067 -4.6136 282° West 478 550 35,000 240 Climbing FlightAware UK
08:46AM 56.5040 -4.5870 282° West 442 509 35,000 600 Level FlightAware
08:46AM 56.5192 -4.7226 282° West 482 555 35,300 540 Climbing FlightAware UK
08:46AM 56.5290 -4.8070 282° West 447 514 35,400 360 Climbing FlightAware
08:47AM 56.5440 -4.9440 282° West 450 518 35,700 420 Climbing FlightAware
08:47AM 56.5465 -4.9655 282° West 480 552 35,700 300 Level FlightAware UK
08:48AM 56.5589 -5.0769 282° West 482 555 35,900 300 Climbing FlightAware UK
08:48AM 56.5590 -5.0740 282° West 452 520 35,900 120 Level FlightAware
08:48AM 56.5737 -5.2103 282° West 484 557 36,000 120 Climbing FlightAware UK
08:48AM 56.5790 -5.2590 282° West 455 524 36,000 -240 Level FlightAware
08:49AM 56.5859 -5.3225 282° West 484 557 35,900  Descending FlightAware UK
08:49AM 56.5970 -5.4290 281° West 454 522 36,000  Climbing FlightAware
08:49AM 56.5980 -5.4349 281° West 482 555 35,900 -240 Descending FlightAware UK
08:50AM 56.6100 -5.5472 281° West 482 555 35,900 120 Level FlightAware UK
08:50AM 56.6150 -5.5980 281° West 457 526 36,000 180 Climbing FlightAware
08:50AM 56.6220 -5.6598 281° West 484 557 36,000  Level FlightAware UK
08:50AM 56.6290 -5.7290 281° West 458 527 36,000 -120 Level FlightAware
08:51AM 56.6455 -5.8857 281° West 484 557 35,900  Descending FlightAware UK
08:51AM 56.6470 -5.8950 281° West 458 527 36,000  Climbing FlightAware
08:52AM 56.6572 -5.9989 281° West 480 552 35,900  Descending FlightAware UK
08:52AM 56.6630 -6.0560 281° West 459 528 36,000 60 Climbing FlightAware
08:53AM 56.6780 -6.2070 281° West 461 531 36,000  Level FlightAware
08:53AM 56.6804 -6.2260 281° West 486 559 36,000 -240 Level FlightAware UK
08:53AM 56.6918 -6.3402 281° West 484 557 35,900  Descending FlightAware UK
08:53AM 56.6960 -6.3790 281° West 461 531 36,000  Climbing FlightAware
08:54AM 56.7053 -6.4767 281° West 486 559 35,900  Descending FlightAware UK
08:54AM 56.7160 -6.5920 280° West 462 532 36,000  Climbing FlightAware
08:54AM 56.7187 -6.6142 280° West 488 562 35,900 -180 Descending FlightAware UK
08:55AM 56.7299 -6.7285 280° West 486 559 35,900 120 Level FlightAware UK
08:55AM 56.7310 -6.7440 280° West 462 532 36,000 120 Climbing FlightAware
08:56AM 56.7480 -6.9160 280° West 462 532 36,000 -120 Level FlightAware
08:56AM 56.7603 -7.0502 280° West 488 562 35,900  Descending FlightAware UK
08:56AM 56.7610 -7.0620 280° West 462 532 36,000  Climbing FlightAware
08:57AM 56.7711 -7.1656 280° West 488 562 35,900 -120 Descending FlightAware UK
08:57AM 56.7819 -7.2810 280° West 488 562 35,900 180 Level FlightAware UK
08:57AM 56.7820 -7.2810 280° West 463 533 36,000  Climbing FlightAware
08:58AM 56.7924 -7.3964 280° West 486 559 35,900  Descending FlightAware UK
08:58AM 56.7980 -7.4590 280° West 463 533 36,000 120 Climbing FlightAware
08:58AM 56.8060 -7.5540 279° West 463 533 36,000 -180 Level FlightAware
08:59AM 56.8150 -7.6504 279° West 490 564 35,900  Descending FlightAware UK
08:59AM 56.8220 -7.7300 279° West 463 533 36,000 60 Climbing FlightAware
09:00AM 56.8330 -7.8610 279° West 464 534 36,000 -180 Level FlightAware
09:00AM 56.8355 -7.8822 279° West 486 559 35,900 -240 Descending FlightAware UK
09:00AM 56.8454 -7.9982 279° West 486 559 35,900 120 Level FlightAware UK
09:01AM 56.8490 -8.0400 279° West 465 535 36,000  Climbing FlightAware
09:01AM 56.8552 -8.1146 279° West 488 562 35,900  Descending FlightAware UK
09:01AM 56.8620 -8.1930 279° West 466 536 36,000  Climbing FlightAware
09:02AM 56.8748 -8.3483 279° West 488 562 35,900  Descending FlightAware UK
09:02AM 56.8760 -8.3680 279° West 468 539 36,000  Climbing FlightAware
09:02AM 56.8846 -8.4653 279° West 490 564 35,900  Descending FlightAware UK
09:03AM 56.8890 -8.5260 279° West 468 539 36,000 60 Climbing FlightAware
09:03AM 56.9000 -8.6600 279° West 468 539 36,000  Level FlightAware
09:03AM 56.9035 -8.6996 279° West 488 562 36,000  Level FlightAware UK
09:04AM 56.9110 -8.7990 279° West 468 539 36,000  Level FlightAware
09:04AM 56.9126 -8.8168 279° West 486 559 36,000  Level FlightAware UK
09:04AM 56.9236 -8.9570 279° West 488 562 36,000  Level FlightAware UK
09:05AM 56.9230 -8.9550 279° West 470 541 36,000  Level FlightAware
09:05AM 56.9370 -9.1370 278° West 470 541 36,000  Level FlightAware
09:06AM 56.9440 -9.2310 278° West 470 541 36,000  Level FlightAware
09:06AM 56.9550 -9.3670 278° West 36,000  Level FlightAware
09:07AM 56.9760 -9.6540 278° West 470 541 36,000  Level FlightAware
09:08AM 56.9840 -9.7920 276° West 469 540 36,000  Level FlightAware
09:09AM 56.9960 -9.9940 276° West 469 540 36,000  Level FlightAware
09:10AM 57.0030 -10.1180 276° West 469 540 36,000  Level FlightAware
09:10AM 57.0100 -10.2500 276° West 469 540 36,000  Level FlightAware
09:11AM 57.0190 -10.4050 276° West 469 540 36,000  Level FlightAware
09:11AM 57.1550 -10.5460 331° Northwest 476 548 36,000  Level FlightAware
09:12AM 57.1910 -10.6940 294° West 475 547 36,000  Level FlightAware
09:13AM 57.2250 -10.8360 294° West 475 547 36,000  Level FlightAware
09:13AM 57.2530 -10.9500 294° West 475 547 36,000  Level FlightAware
09:14AM 57.2900 -11.1040 294° West 475 547 36,000  Level FlightAware
09:15AM 57.3170 -11.2180 294° West 475 547 36,000  Level FlightAware
09:16AM 57.3520 -11.3630 294° West 475 547 36,000  Level FlightAware
09:17AM 57.3980 -11.5530 294° West 475 547 36,000  Level FlightAware
09:17AM 57.4280 -11.6800 294° West 475 547 36,000  Level FlightAware
09:18AM 57.4640 -11.8290 294° West 475 547 36,000  Level FlightAware
09:19AM 57.4910 -11.9430 294° West 475 547 36,000  Level FlightAware
09:19AM 57.5180 -12.0580 294° West 475 547 36,000  Level FlightAware
09:20AM 57.5550 -12.2100 294° West 475 547 36,000  Level FlightAware
09:21AM 57.5920 -12.3660 294° West 475 547 36,000  Level FlightAware
09:21AM 57.6200 -12.4840 294° West 475 547 36,000  Level FlightAware
09:22AM 57.6480 -12.5990 295° West 475 547 36,000  Level FlightAware
09:25AM 57.7246 -13.1253 285° West  Level Estimated
09:26AM 57.7556 -13.3438 285° West  Level Estimated
09:27AM 57.7863 -13.5626 285° West  Level Estimated
09:28AM 57.8166 -13.7818 285° West  Level Estimated
09:29AM 57.8465 -14.0013 284° West  Level Estimated
09:30AM 57.8760 -14.2212 284° West  Level Estimated
09:31AM 57.9051 -14.4415 284° West  Level Estimated
09:32AM 57.9339 -14.6621 284° West  Level Estimated
09:33AM 57.9623 -14.8831 284° West  Level Estimated
09:34AM 57.9903 -15.1044 284° West  Level Estimated
09:35AM 58.0187 -15.3326 283° West  Level Estimated
09:36AM 58.0467 -15.5608 283° West  Level Estimated
09:37AM 58.0742 -15.7894 283° West  Level Estimated
09:38AM 58.1014 -16.0184 283° West  Level Estimated
09:39AM 58.1282 -16.2477 283° West  Level Estimated
09:40AM 58.1545 -16.4773 282° West  Level Estimated
09:41AM 58.1804 -16.7073 282° West  Level Estimated
09:42AM 58.2059 -16.9377 282° West  Level Estimated
09:43AM 58.2306 -17.1645 282° West  Level Estimated
09:44AM 58.2549 -17.3917 282° West  Level Estimated
09:45AM 58.2787 -17.6191 281° West  Level Estimated
09:46AM 58.3022 -17.8469 281° West  Level Estimated
09:47AM 58.3253 -18.0750 281° West  Level Estimated
09:48AM 58.3479 -18.3033 281° West  Level Estimated
09:49AM 58.3702 -18.5320 281° West  Level Estimated
09:50AM 58.3920 -18.7609 280° West  Level Estimated
09:51AM 58.4134 -18.9902 280° West  Level Estimated
09:52AM 58.4345 -19.2197 280° West  Level Estimated
09:52AM 59.0000 -20.0000 285° West 442 509 36,000  Level ETMS Enhanced Traffic Management System
09:53AM 58.4551 -19.4494 280° West  Level Estimated
09:54AM 58.4753 -19.6799 280° West  Level Estimated
09:55AM 58.4952 -19.9107 279° West  Level Estimated
09:56AM 58.5146 -20.1416 279° West  Level Estimated
09:57AM 58.5336 -20.3729 279° West  Level Estimated
09:58AM 58.5521 -20.6044 279° West  Level Estimated
09:59AM 59.2191 -21.6225 284° West 442 509 36,000  Level FlightAware Transoceanic
10:00AM 59.2487 -21.8559 284° West 442 509 36,000  Level FlightAware Transoceanic
10:01AM 59.2779 -22.0898 284° West 442 509 36,000  Level FlightAware Transoceanic
10:02AM 59.3067 -22.3240 283° West 442 509 36,000  Level FlightAware Transoceanic
10:03AM 59.3351 -22.5587 283° West 442 509 36,000  Level FlightAware Transoceanic
10:04AM 59.3630 -22.7937 283° West 442 509 36,000  Level FlightAware Transoceanic
10:05AM 59.3906 -23.0291 283° West 442 509 36,000  Level FlightAware Transoceanic
10:06AM 59.4177 -23.2649 283° West 442 509 36,000  Level FlightAware Transoceanic
10:07AM 59.4444 -23.5011 282° West 442 509 36,000  Level FlightAware Transoceanic
10:08AM 59.4706 -23.7376 282° West 442 509 36,000  Level FlightAware Transoceanic
10:09AM 59.4964 -23.9746 282° West 442 509 36,000  Level FlightAware Transoceanic
10:10AM 59.5218 -24.2118 282° West 442 509 36,000  Level FlightAware Transoceanic
10:11AM 59.5468 -24.4494 282° West 442 509 36,000  Level FlightAware Transoceanic
10:12AM 59.5713 -24.6874 281° West 442 509 36,000  Level FlightAware Transoceanic
10:13AM 59.5954 -24.9257 281° West 442 509 36,000  Level FlightAware Transoceanic
10:14AM 59.6191 -25.1644 281° West 442 509 36,000  Level FlightAware Transoceanic
10:15AM 59.6423 -25.4034 281° West 442 509 36,000  Level FlightAware Transoceanic
10:16AM 59.6651 -25.6427 281° West 442 509 36,000  Level FlightAware Transoceanic
10:17AM 59.6875 -25.8823 280° West 442 509 36,000  Level FlightAware Transoceanic
10:18AM 59.7094 -26.1223 280° West 442 509 36,000  Level FlightAware Transoceanic
10:19AM 59.7309 -26.3626 280° West 442 509 36,000  Level FlightAware Transoceanic
10:20AM 59.7519 -26.6031 280° West 442 509 36,000  Level FlightAware Transoceanic
10:21AM 59.7725 -26.8440 280° West 442 509 36,000  Level FlightAware Transoceanic
10:22AM 59.7927 -27.0852 279° West 442 509 36,000  Level FlightAware Transoceanic
10:23AM 59.8124 -27.3266 279° West 442 509 36,000  Level FlightAware Transoceanic
10:24AM 59.8317 -27.5684 279° West 442 509 36,000  Level FlightAware Transoceanic
10:25AM 59.8506 -27.8104 279° West 442 509 36,000  Level FlightAware Transoceanic
10:26AM 59.8689 -28.0527 278° West 442 509 36,000  Level FlightAware Transoceanic
10:27AM 59.8869 -28.2952 278° West 442 509 36,000  Level FlightAware Transoceanic
10:28AM 59.9044 -28.5380 278° West 442 509 36,000  Level FlightAware Transoceanic
10:29AM 59.9215 -28.7811 278° West 442 509 36,000  Level FlightAware Transoceanic
10:30AM 59.9381 -29.0244 278° West 442 509 36,000  Level FlightAware Transoceanic
10:31AM 59.9542 -29.2680 277° West 442 509 36,000  Level FlightAware Transoceanic
10:32AM 59.9699 -29.5117 277° West 442 509 36,000  Level FlightAware Transoceanic
10:33AM 59.9852 -29.7558 277° West 442 509 36,000  Level FlightAware Transoceanic
10:34AM 59.9999 -29.9984 277° West  Level FlightAware Approximate
10:35AM 60.0148 -30.2411 277° West  Level FlightAware Approximate
10:36AM 60.0089 -30.2406 274° West  Level FlightAware Approximate
10:37AM 60.0175 -30.4846 274° West  Level FlightAware Approximate
10:38AM 60.0256 -30.7291 274° West  Level FlightAware Approximate
10:39AM 60.0333 -30.9738 274° West  Level FlightAware Approximate
10:40AM 60.0405 -31.2185 273° West  Level FlightAware Approximate
10:41AM 60.0473 -31.4634 273° West  Level FlightAware Approximate
10:42AM 60.0536 -31.7084 273° West  Level FlightAware Approximate
10:43AM 60.0595 -31.9534 273° West  Level FlightAware Approximate
10:44AM 60.0649 -32.1986 273° West  Level FlightAware Approximate
10:45AM 60.0698 -32.4438 272° West  Level FlightAware Approximate
10:46AM 60.0743 -32.6891 272° West  Level FlightAware Approximate
10:47AM 60.0784 -32.9345 272° West  Level FlightAware Approximate
10:48AM 60.0820 -33.1799 272° West  Level FlightAware Approximate
10:49AM 60.0851 -33.4254 272° West  Level FlightAware Approximate
10:50AM 60.0878 -33.6709 271° West  Level FlightAware Approximate
10:51AM 60.0901 -33.9164 271° West  Level FlightAware Approximate
10:52AM 60.0919 -34.1620 271° West  Level FlightAware Approximate
10:53AM 60.0932 -34.4076 271° West  Level FlightAware Approximate
10:54AM 60.0941 -34.6532 271° West  Level FlightAware Approximate
10:55AM 60.0945 -34.8989 270° West  Level FlightAware Approximate
10:56AM 60.0944 -35.1445 270° West  Level FlightAware Approximate
10:57AM 60.0939 -35.3901 270° West  Level FlightAware Approximate
10:58AM 60.0930 -35.6357 270° West  Level FlightAware Approximate
10:59AM 60.0916 -35.8813 269° West  Level FlightAware Approximate
11:00AM 60.0897 -36.1269 269° West  Level FlightAware Approximate
11:00AM 60.1000 -35.7833 268° West 450 518 37,000  Level Gander Center
11:01AM 60.0874 -36.3724 269° West  Level FlightAware Approximate
11:01AM 60.1000 -36.0333 270° West 450 518 37,000  Level Gander Center
11:02AM 60.0846 -36.6179 269° West  Level FlightAware Approximate
11:02AM 60.0833 -36.2500 261° West 450 518 37,000  Level Gander Center
11:03AM 60.0814 -36.8634 269° West  Level FlightAware Approximate
11:03AM 60.1000 -36.4833 278° West 450 518 37,000  Level Gander Center
11:04AM 60.0777 -37.1088 268° West  Level FlightAware Approximate
11:04AM 60.0833 -36.7333 262° West 450 518 37,000  Level Gander Center
11:05AM 60.0736 -37.3542 268° West  Level FlightAware Approximate
11:05AM 60.0833 -36.9833 270° West 450 518 37,000  Level Gander Center
11:06AM 60.0833 -37.2333 270° West 450 518 37,000  Level Gander Center
11:07AM 60.0667 -37.4833 262° West 450 518 37,000  Level Gander Center
11:08AM 60.0833 -37.7167 278° West 450 518 37,000  Level Gander Center
11:09AM 60.0667 -37.9667 262° West 450 518 37,000  Level Gander Center
11:10AM 60.0667 -38.2167 270° West 450 518 37,000  Level Gander Center
11:11AM 60.0500 -38.4667 263° West 450 518 37,000  Level Gander Center
11:12AM 60.0500 -38.7167 270° West 450 518 37,000  Level Gander Center
11:13AM 60.0500 -38.9667 270° West 450 518 37,000  Level Gander Center
11:14AM 60.0333 -39.2167 263° West 450 518 37,000  Level Gander Center
11:15AM 60.0333 -39.4667 270° West 450 518 37,000  Level Gander Center
11:16AM 60.0167 -39.7167 263° West 450 518 37,000  Level Gander Center
11:17AM 60.0000 -39.9667 263° West 450 518 37,000  Level Gander Center
11:18AM 60.0000 -40.2167 270° West 450 518 37,000  Level Gander Center
11:19AM 59.9833 -40.4667 263° West 450 518 37,000  Level Gander Center
11:20AM 59.9667 -40.7167 263° West 450 518 37,000  Level Gander Center
11:21AM 59.9500 -40.9333 261° West 460 529 37,000  Level Gander Center
11:22AM 59.9167 -41.1833 255° West 460 529 37,000  Level Gander Center
11:23AM 59.9167 -41.4667 270° West 460 529 37,000  Level Gander Center
11:24AM 59.9000 -41.7167 263° West 470 541 37,000  Level Gander Center
11:25AM 59.8833 -41.9667 263° West 470 541 37,000  Level Gander Center
11:26AM 59.8667 -42.2167 263° West 470 541 37,000  Level Gander Center
11:27AM 59.8333 -42.4667 255° West 470 541 37,000  Level Gander Center
11:28AM 59.8167 -42.7167 263° West 470 541 37,000  Level Gander Center
11:29AM 59.8000 -42.9667 263° West 470 541 37,000  Level Gander Center
11:30AM 59.7833 -43.2167 263° West 470 541 37,000  Level Gander Center
11:31AM 59.7500 -43.4667 255° West 470 541 37,000  Level Gander Center
11:32AM 59.7333 -43.7167 263° West 460 529 37,000  Level Gander Center
11:33AM 59.7000 -43.9667 255° West 470 541 37,000  Level Gander Center
11:34AM 60.0000 -40.0000 263° West 453 521 37,000  Level ETMS Enhanced Traffic Management System
11:34AM 59.6833 -44.2000 263° West 470 541 37,000  Level Gander Center
11:35AM 59.6500 -44.4833 257° West 470 541 37,000  Level Gander Center
11:36AM 59.6333 -44.7333 263° West 470 541 37,000  Level Gander Center
11:37AM 59.6167 -44.9833 263° West 470 541 37,000  Level Gander Center
11:38AM 59.6000 -45.2333 263° West 470 541 37,000  Level Gander Center
11:39AM 59.5500 -45.4833 249° West 470 541 37,000  Level Gander Center
11:40AM 59.5333 -45.7167 262° West 470 541 37,000  Level Gander Center
11:41AM 59.5167 -45.9667 263° West 470 541 37,000  Level Gander Center
11:42AM 59.4833 -46.2167 255° West 470 541 37,000  Level Gander Center
11:43AM 59.4500 -46.5000 257° West 470 541 37,000  Level Gander Center
11:44AM 59.4333 -46.7333 262° West 480 552 37,000  Level Gander Center
11:45AM 59.4000 -46.9833 255° West 480 552 37,000  Level Gander Center
11:46AM 59.3667 -47.2333 255° West 480 552 37,000  Level Gander Center
11:47AM 59.3333 -47.4667 254° West 480 552 37,000  Level Gander Center
11:48AM 59.3167 -47.7500 264° West 480 552 37,000  Level Gander Center
11:49AM 59.2667 -48.0000 249° West 480 552 37,000  Level Gander Center
11:50AM 59.2500 -48.2333 262° West 480 552 37,000  Level Gander Center
11:51AM 59.2167 -48.5167 257° West 490 564 37,000  Level Gander Center
11:52AM 59.1667 -48.7500 247° West 490 564 37,000  Level Gander Center
11:53AM 59.1500 -49.0333 264° West 490 564 37,000  Level Gander Center
11:54AM 59.1000 -49.2667 247° West 490 564 37,000  Level Gander Center
11:55AM 59.0667 -49.5167 256° West 490 564 37,000  Level Gander Center
11:56AM 59.0500 -49.7833 263° West 500 575 37,000  Level Gander Center
11:57AM 59.0000 -50.0333 249° West 500 575 37,000  Level Gander Center
11:58AM 58.9500 -50.3000 250° West 500 575 37,000  Level Gander Center
11:59AM 58.9167 -50.5333 255° West 500 575 37,000  Level Gander Center
12:00PM 58.8833 -50.8167 257° West 500 575 37,000  Level Gander Center
12:01PM 58.8500 -51.0500 255° West 500 575 37,000  Level Gander Center
12:02PM 58.8000 -51.3167 250° West 500 575 37,000  Level Gander Center
12:03PM 58.7667 -51.5500 255° West 500 575 37,000  Level Gander Center
12:04PM 58.7167 -51.8333 251° West 500 575 37,000  Level Gander Center
12:05PM 58.6833 -52.0667 255° West 500 575 37,000  Level Gander Center
12:06PM 58.6333 -52.3000 248° West 500 575 37,000  Level Gander Center
12:07PM 58.5833 -52.5667 250° West 500 575 37,000  Level Gander Center
12:08PM 58.5500 -52.8000 255° West 510 587 37,000  Level Gander Center
12:09PM 58.5000 -53.0667 250° West 510 587 37,000  Level Gander Center
12:10PM 58.4500 -53.3333 250° West 510 587 37,000  Level Gander Center
12:11PM 58.4167 -53.5667 255° West 510 587 37,000  Level Gander Center
12:13PM 58.3724 -53.9335 257° West  Level FlightAware Approximate
12:14PM 59.0000 -50.0000 254° West 502 578 37,000  Level ETMS Enhanced Traffic Management System
12:15PM 58.1833 -54.7000 248° West 520 598 37,000  Level Gander Center
12:16PM 58.1333 -54.9667 251° West 520 598 37,000  Level Gander Center
12:17PM 58.1000 -55.2167 256° West 520 598 37,000  Level Gander Center
12:18PM 58.0500 -55.4833 251° West 520 598 37,000  Level Gander Center
12:19PM 57.9833 -55.7167 242° Southwest 500 575 37,000  Level Gander Center
12:20PM 57.9067 -56.0526 248° West 502 578 37,000 60 Level FlightAware Transoceanic
12:20PM 57.9500 -55.9667 256° West 510 587 37,100  Climbing Gander Center
12:21PM 57.8551 -56.2964 248° West 502 578 37,000 300 Descending FlightAware Transoceanic
12:21PM 57.8833 -56.2000 242° Southwest 510 587 37,400 540 Climbing Gander Center
12:22PM 57.8333 -56.4500 250° West 510 587 38,000 300 Climbing Gander Center
12:23PM 57.7667 -56.7167 245° Southwest 500 575 38,000  Level Gander Center
12:24PM 57.7333 -56.9333 254° West 500 575 38,000  Level Gander Center
12:25PM 57.6667 -57.1667 242° Southwest 500 575 38,000  Level Gander Center
12:26PM 57.6167 -57.4167 250° West 500 575 38,000  Level Gander Center
12:27PM 57.5667 -57.6500 248° West 500 575 38,000  Level Gander Center
12:28PM 57.5167 -57.8667 247° West 510 587 38,000  Level Gander Center
12:29PM 57.4500 -58.0833 240° Southwest 510 587 38,000  Level Gander Center
12:30PM 57.4000 -58.3167 248° West 500 575 38,000  Level Gander Center
12:31PM 57.3333 -58.5667 244° Southwest 490 564 38,000  Level Gander Center
12:32PM 57.2833 -58.8167 250° West 500 575 38,000  Level Gander Center
12:33PM 57.2333 -59.0333 247° West 500 575 38,000  Level Gander Center
12:34PM 57.1667 -59.3167 247° West 490 564 38,000  Level Gander Center
12:35PM 57.1333 -59.5000 252° West 490 564 38,000  Level Gander Center
12:36PM 57.1000 -59.8333 260° West 490 564 38,000  Level Gander Center
12:37PM 57.0667 -60.0167 252° West 490 564 38,000  Level Gander Center
12:38PM 57.0167 -60.2667 250° West 490 564 38,000  Level Gander Center
12:39PM 56.9833 -60.5167 256° West 490 564 38,000  Level Gander Center
12:40PM 56.9333 -60.7667 250° West 500 575 38,000  Level Gander Center
12:41PM 56.9000 -61.0000 255° West 500 575 38,000  Level Gander Center
12:42PM 56.8500 -61.2500 250° West 500 575 38,000  Level Gander Center
12:43PM 56.8000 -61.4667 247° West 500 575 38,000  Level Gander Center
12:44PM 56.7500 -61.7667 253° West 500 575 38,000  Level Gander Center
12:45PM 56.7000 -62.0167 250° West 500 575 38,000  Level Gander Center
12:46PM 56.6667 -62.2000 252° West 500 575 38,000  Level Gander Center
12:47PM 56.6333 -62.4333 256° West 490 564 38,000  Level Gander Center
12:48PM 56.5833 -62.6833 250° West 500 575 38,000  Level Gander Center
12:49PM 56.5500 -62.8833 253° West 490 564 38,000  Level Gander Center
12:50PM 56.4833 -63.1333 244° Southwest 510 587 38,000  Level Gander Center
12:51PM 56.4500 -63.3667 256° West 480 552 38,000  Level Gander Center
12:52PM 56.4000 -63.6000 249° West 500 575 38,000  Level Gander Center
12:53PM 56.3667 -63.8500 257° West 500 575 38,000  Level Gander Center
12:54PM 56.3000 -64.0833 243° Southwest 490 564 38,000  Level Gander Center
12:55PM 56.2500 -64.2833 246° West 490 564 38,000  Level Gander Center
12:56PM 56.2167 -64.5167 256° West 490 564 38,000  Level Gander Center
12:57PM 56.1500 -64.7667 245° Southwest 500 575 38,000  Level Gander Center
12:58PM 56.1167 -65.0000 256° West 490 564 38,000  Level Gander Center
12:59PM 56.0667 -65.2000 246° West 490 564 38,000  Level Gander Center
01:00PM 56.0000 -65.4333 243° Southwest 490 564 38,000  Level Gander Center
01:01PM 55.9667 -65.6667 256° West 490 564 38,000  Level Gander Center
01:02PM 55.9000 -65.9000 243° Southwest 490 564 38,000  Level Gander Center
01:03PM 55.8667 -66.1000 254° West 480 552 38,000  Level Gander Center
01:04PM 55.8000 -66.3333 243° Southwest 490 564 38,000  Level Gander Center
01:05PM 55.7667 -66.4500 243° Southwest 490 564 38,000  Level Montreal Center
01:05PM 55.7333 -66.5667 243° Southwest 500 575 38,000  Level Gander Center
01:06PM 55.7167 -66.6500 250° West 470 541 38,000  Level Montreal Center
01:07PM 55.6667 -66.9000 251° West 490 564 38,000  Level Montreal Center
01:07PM 55.6333 -67.0000 239° Southwest 470 541 38,000  Level Gander Center
01:08PM 55.6000 -67.1000 239° Southwest 470 541 38,000  Level Montreal Center
01:09PM 55.5500 -67.3167 248° West 480 552 38,000  Level Montreal Center
01:09PM 55.5167 -67.4167 240° Southwest 480 552 38,000  Level Gander Center
01:10PM 55.4333 -67.6167 234° Southwest 480 552 38,000  Level Gander Center
01:11PM 55.3833 -67.8167 246° West 480 552 38,000  Level Gander Center
01:12PM 55.3167 -68.0333 242° Southwest 480 552 38,000  Level Gander Center
01:13PM 55.2333 -68.2333 234° Southwest 480 552 38,000  Level Gander Center
01:14PM 55.2000 -68.3167 235° Southwest 470 541 38,000  Level Montreal Center
01:14PM 55.1833 -68.4333 256° West 480 552 38,000  Level Gander Center
01:15PM 55.1167 -68.6167 238° Southwest 480 552 38,000  Level Gander Center
01:16PM 55.0333 -68.8167 234° Southwest 480 552 38,000  Level Gander Center
01:17PM 55.0000 -68.9167 240° Southwest 480 552 38,000  Level Montreal Center
01:17PM 54.9833 -69.0333 256° West 480 552 38,000  Level Gander Center
01:18PM 54.9333 -69.1333 229° Southwest 480 552 38,000  Level Montreal Center
01:19PM 54.8667 -69.3167 238° Southwest 470 541 38,000  Level Montreal Center
01:20PM 54.8000 -69.5000 238° Southwest 460 529 38,000  Level Montreal Center
01:20PM 54.7667 -69.6333 247° West 480 552 38,000  Level Gander Center
01:21PM 54.6833 -69.8167 232° Southwest 480 552 38,000  Level Gander Center
01:22PM 54.6500 -69.9000 235° Southwest 480 552 38,000  Level Montreal Center
01:23PM 54.5833 -70.1167 242° Southwest 480 552 38,000  Level Montreal Center
01:23PM 54.5667 -70.2333 256° West 480 552 38,000  Level Gander Center
01:24PM 54.4833 -70.4167 232° Southwest 480 552 38,000  Level Gander Center
01:25PM 54.4500 -70.4833 229° Southwest 470 541 38,000  Level Montreal Center
01:26PM 54.3333 -70.7667 235° Southwest 490 564 38,000  Level Montreal Center
01:27PM 54.2667 -70.9667 240° Southwest 470 541 38,000  Level Montreal Center
01:28PM 54.1833 -71.1500 232° Southwest 470 541 38,000  Level Montreal Center
01:29PM 54.1333 -71.3333 245° Southwest 470 541 38,000  Level Montreal Center
01:30PM 54.0500 -71.5500 237° Southwest 470 541 38,000  Level Montreal Center
01:31PM 53.9667 -71.7333 232° Southwest 470 541 38,000  Level Montreal Center
01:32PM 53.9167 -71.9000 243° Southwest 480 552 38,000  Level Gander Center
01:33PM 53.8333 -72.1000 235° Southwest 470 541 38,000  Level Gander Center
01:34PM 53.7667 -72.2833 238° Southwest 470 541 38,000  Level Gander Center
01:35PM 53.7000 -72.4667 238° Southwest 470 541 38,000  Level Gander Center
01:36PM 53.6333 -72.6500 239° Southwest 470 541 38,000  Level Gander Center
01:37PM 53.5500 -72.8167 230° Southwest 470 541 38,000  Level Gander Center
01:38PM 53.4833 -73.0333 243° Southwest 470 541 38,000  Level Gander Center
01:39PM 53.4167 -73.2167 239° Southwest 470 541 38,000  Level Gander Center
01:40PM 53.3333 -73.3833 230° Southwest 470 541 38,000  Level Gander Center
01:41PM 53.2500 -73.5667 233° Southwest 470 541 38,000  Level Gander Center
01:42PM 53.1833 -73.7333 236° Southwest 470 541 38,000  Level Gander Center
01:43PM 53.1000 -73.9167 233° Southwest 470 541 38,000  Level Gander Center
01:44PM 53.0333 -74.0833 236° Southwest 480 552 38,000  Level Gander Center
01:45PM 52.9667 -74.2667 239° Southwest 470 541 38,000  Level Gander Center
01:46PM 52.9000 -74.4333 236° Southwest 470 541 38,000  Level Gander Center
01:47PM 52.8000 -74.6333 230° Southwest 460 529 38,000  Level Montreal Center
01:48PM 52.7167 -74.8000 231° Southwest 460 529 38,000  Level Montreal Center
01:49PM 52.6500 -74.9667 237° Southwest 470 541 38,000  Level Montreal Center
01:50PM 52.5667 -75.1333 231° Southwest 450 518 38,000  Level Montreal Center
01:51PM 52.5000 -75.3000 237° Southwest 460 529 38,000  Level Montreal Center
01:52PM 52.4167 -75.4667 231° Southwest 460 529 38,000  Level Montreal Center
01:53PM 52.3333 -75.6333 231° Southwest 460 529 38,000  Level Montreal Center
01:54PM 52.2667 -75.8000 237° Southwest 450 518 38,000  Level Montreal Center
01:55PM 52.1833 -76.0000 236° Southwest 460 529 38,000  Level Montreal Center
01:56PM 52.1167 -76.1500 234° Southwest 450 518 38,000  Level Montreal Center
01:57PM 52.0333 -76.3167 231° Southwest 460 529 38,000  Level Montreal Center
01:58PM 51.9667 -76.4833 237° Southwest 450 518 38,000  Level Montreal Center
01:59PM 51.8667 -76.6500 226° Southwest 460 529 38,000  Level Montreal Center
02:00PM 51.8000 -76.8167 237° Southwest 460 529 38,000  Level Montreal Center
02:01PM 51.7167 -76.9667 228° Southwest 460 529 38,000  Level Montreal Center
02:02PM 51.6333 -77.1500 234° Southwest 460 529 38,000  Level Montreal Center
02:03PM 51.5667 -77.3167 237° Southwest 450 518 38,000  Level Montreal Center
02:04PM 51.4833 -77.4833 231° Southwest 450 518 38,000  Level Montreal Center
02:05PM 51.4167 -77.6333 235° Southwest 460 529 38,000  Level Montreal Center
02:06PM 51.3167 -77.8000 226° Southwest 450 518 38,000  Level Montreal Center
02:07PM 51.2500 -77.9500 235° Southwest 450 518 38,000  Level Montreal Center
02:08PM 51.1667 -78.1167 231° Southwest 450 518 38,000  Level Montreal Center
02:09PM 51.1000 -78.2667 235° Southwest 450 518 38,000  Level Montreal Center
02:10PM 51.0167 -78.4333 232° Southwest 460 529 38,000  Level Montreal Center
02:11PM 50.9333 -78.5833 229° Southwest 460 529 38,000  Level Montreal Center
02:12PM 50.8500 -78.7333 229° Southwest 460 529 38,000  Level Montreal Center
02:13PM 50.7667 -78.9167 234° Southwest 450 518 38,000  Level Montreal Center
02:14PM 50.6833 -79.0500 225° Southwest 450 518 38,000  Level Montreal Center
02:15PM 50.6000 -79.2000 229° Southwest 450 518 38,000  Level Montreal Center
02:16PM 50.5833 -79.2333 232° Southwest 470 541 38,000  Level Toronto Center
02:16PM 50.5333 -79.3833 242° Southwest 450 518 38,000  Level Montreal Center
02:17PM 50.4500 -79.5333 229° Southwest 450 518 38,000  Level Montreal Center
02:18PM 50.3667 -79.6833 229° Southwest 460 529 38,000  Level Montreal Center
02:19PM 50.3333 -79.7000 198° South 460 529 38,000  Level Toronto Center
02:20PM 50.2667 -79.8667 238° Southwest 460 529 38,000  Level Toronto Center
02:21PM 50.1667 -80.0167 224° Southwest 460 529 38,000  Level Toronto Center
02:21PM 50.1000 -80.1167 224° Southwest 460 529 38,000  Level Montreal Center
02:22PM 50.0667 -80.1500 213° Southwest 470 541 38,000  Level Toronto Center
02:23PM 49.9667 -80.2833 221° Southwest 460 529 38,000  Level Toronto Center
02:23PM 49.9000 -80.3833 224° Southwest 460 529 38,000  Level Montreal Center
02:24PM 49.8667 -80.3833 180° South 460 529 38,000  Level Toronto Center
02:25PM 49.7667 -80.5000 217° Southwest 460 529 38,000  Level Toronto Center
02:26PM 49.6667 -80.6333 221° Southwest 460 529 38,000  Level Toronto Center
02:27PM 49.5500 -80.7667 217° Southwest 470 541 38,000  Level Toronto Center
02:28PM 49.4500 -80.8833 217° Southwest 460 529 38,000  Level Toronto Center
02:29PM 49.3500 -81.0167 221° Southwest 460 529 38,000  Level Toronto Center
02:30PM 49.2667 -81.1167 218° Southwest 460 529 38,000  Level Toronto Center
02:31PM 49.1500 -81.2333 213° Southwest 460 529 38,000  Level Toronto Center
02:32PM 49.0667 -81.3667 226° Southwest 460 529 38,000  Level Toronto Center
02:33PM 48.9500 -81.4833 213° Southwest 460 529 38,000  Level Toronto Center
02:34PM 48.8667 -81.6000 223° Southwest 450 518 38,000  Level Toronto Center
02:35PM 48.7667 -81.7333 221° Southwest 460 529 38,000  Level Toronto Center
02:36PM 48.6667 -81.8167 209° Southwest 450 518 38,000  Level Toronto Center
02:37PM 48.5667 -81.9500 221° Southwest 450 518 38,000  Level Toronto Center
02:38PM 48.4500 -82.0667 214° Southwest 450 518 38,000  Level Toronto Center
02:39PM 48.3500 -82.1667 214° Southwest 450 518 38,000  Level Toronto Center
02:40PM 48.2500 -82.2833 218° Southwest 450 518 38,000  Level Toronto Center
02:41PM 48.1667 -82.4000 223° Southwest 450 518 38,000  Level Toronto Center
02:42PM 48.0500 -82.5167 214° Southwest 450 518 38,000  Level Toronto Center
02:47PM 47.4610 -83.0250 214° Southwest 460 529 38,000  Level FlightAware
02:48PM 47.3690 -83.0980 208° Southwest 460 529 38,000  Level FlightAware
02:49PM 47.2830 -83.1670 209° Southwest 460 529 38,000  Level FlightAware
02:49PM 47.2080 -83.2270 209° Southwest 460 529 38,000  Level FlightAware
02:50PM 47.1440 -83.2780 208° Southwest 460 529 38,000  Level FlightAware
02:51PM 47.0580 -83.3460 208° Southwest 459 528 38,000  Level FlightAware
02:51PM 46.9990 -83.3930 209° Southwest 459 528 38,000  Level FlightAware
02:52PM 46.9430 -83.4370 208° Southwest 458 527 38,000  Level FlightAware
02:53PM 46.8560 -83.5050 208° Southwest 457 526 38,000  Level FlightAware
02:53PM 46.8090 -83.5420 208° Southwest 457 526 38,000  Level FlightAware
02:54PM 46.7300 -83.6040 208° Southwest 454 522 38,000  Level FlightAware
02:54PM 46.6590 -83.6760 215° Southwest 450 518 38,000  Level FlightAware
02:55PM 46.5920 -83.7460 216° Southwest 449 517 38,000  Level FlightAware
02:56PM 46.5280 -83.8150 217° Southwest 448 516 38,000  Level FlightAware
02:56PM 46.4550 -83.8900 215° Southwest 448 516 38,000  Level FlightAware
02:57PM 46.3970 -83.9490 215° Southwest 448 516 38,000  Level FlightAware
02:58PM 46.3170 -84.0330 216° Southwest 444 511 38,000  Level FlightAware
02:58PM 46.2500 -84.1030 216° Southwest 447 514 38,000  Level FlightAware
02:59PM 46.2060 -84.1390 210° Southwest 451 519 38,000  Level FlightAware
02:59PM 46.1440 -84.1800 205° Southwest 456 525 38,000  Level FlightAware
03:00PM 46.0520 -84.2350 203° Southwest 456 525 38,000  Level FlightAware
03:01PM 45.9710 -84.2840 203° Southwest 455 524 38,000  Level FlightAware
03:02PM 45.8860 -84.3360 203° Southwest 458 527 38,000 -180 Level FlightAware
03:02PM 45.8010 -84.3880 203° Southwest 458 527 37,800 -420 Descending FlightAware
03:03PM 45.7180 -84.4380 203° Southwest 452 520 37,400 -540 Descending FlightAware
03:04PM 45.6410 -84.4850 203° Southwest 444 511 37,100 -840 Descending FlightAware
03:04PM 45.5620 -84.5320 203° Southwest 446 513 36,300 -780 Descending FlightAware
03:05PM 45.4780 -84.5820 203° Southwest 442 509 36,000 -240 Descending FlightAware
03:06PM 45.3990 -84.6300 203° Southwest 443 510 36,000  Level FlightAware
03:06PM 45.3280 -84.6720 203° Southwest 445 512 36,000  Level FlightAware
03:07PM 45.2560 -84.7080 199° South 455 524 36,000  Level FlightAware
03:08PM 45.1670 -84.7380 193° South 459 528 36,000  Level FlightAware
03:08PM 45.0830 -84.7660 193° South 457 526 36,000  Level FlightAware
03:09PM 44.9950 -84.7950 193° South 456 525 36,000  Level FlightAware
03:10PM 44.9450 -84.8120 194° South 456 525 36,000  Level FlightAware
03:10PM 44.8510 -84.8430 193° South 453 521 36,000  Level FlightAware
03:11PM 44.7730 -84.8680 193° South 452 520 36,000  Level FlightAware
03:12PM 44.6820 -84.8980 193° South 450 518 36,000 -420 Level FlightAware
03:13PM 44.5820 -84.9310 193° South 450 518 35,400 -840 Descending FlightAware
03:13PM 44.5040 -84.9560 193° South 451 519 34,800 -1,020 Descending FlightAware
03:14PM 44.4190 -84.9840 193° South 456 525 34,100 -900 Descending FlightAware
03:15PM 44.3510 -85.0060 193° South 458 527 33,600 -960 Descending FlightAware
03:15PM 44.2690 -85.0320 193° South 463 533 33,000 -1,140 Descending FlightAware
03:16PM 44.1970 -85.0550 193° South 469 540 32,400 -900 Descending FlightAware
03:16PM 44.1290 -85.0770 193° South 468 539 32,000 -360 Descending FlightAware
03:17PM 44.0340 -85.1070 193° South 469 540 32,000  Level FlightAware
03:17PM 43.9690 -85.1280 193° South 469 540 32,000  Level FlightAware
03:18PM 43.8880 -85.1540 193° South 466 536 32,000  Level FlightAware
03:19PM 43.8100 -85.1790 193° South 464 534 32,000  Level FlightAware
03:19PM 43.7470 -85.1990 193° South 462 532 32,000  Level FlightAware
03:20PM 43.6880 -85.2170 192° South 461 531 32,000  Level FlightAware
03:20PM 43.6010 -85.2440 193° South 460 529 32,000  Level FlightAware
03:21PM 43.5230 -85.2690 193° South 458 527 32,000  Level FlightAware
03:22PM 43.4520 -85.2910 193° South 458 527 32,000  Level FlightAware
03:22PM 43.3740 -85.3160 193° South 456 525 32,000  Level FlightAware
03:23PM 43.3320 -85.3360 199° South 444 511 32,000  Level FlightAware
03:23PM 43.2670 -85.3910 212° Southwest 426 490 32,000 -120 Level FlightAware
03:24PM 43.2150 -85.4640 226° Southwest 421 484 31,900 -300 Descending FlightAware
03:24PM 43.1710 -85.5280 227° Southwest 422 486 31,700 -1,260 Descending FlightAware
03:25PM 43.1250 -85.5940 226° Southwest 412 474 30,500 -2,040 Descending FlightAware
03:26PM 43.0820 -85.6560 226° Southwest 414 476 29,400 -1,980 Descending FlightAware
03:26PM 43.0460 -85.7070 226° Southwest 407 468 28,500 -1,740 Descending FlightAware
03:27PM 42.9880 -85.7890 226° Southwest 383 441 27,300 -1,620 Descending FlightAware
03:27PM 42.9320 -85.8680 226° Southwest 375 432 26,100 -1,560 Descending FlightAware
03:28PM 42.8860 -85.9340 226° Southwest 368 423 25,100 -1,680 Descending FlightAware
03:29PM 42.8380 -86.0010 226° Southwest 352 405 23,900 -1,620 Descending FlightAware
03:29PM 42.8040 -86.0490 226° Southwest 345 397 23,200 -1,440 Descending FlightAware
03:30PM 42.7620 -86.1080 226° Southwest 340 391 22,300 -1,380 Descending FlightAware
03:31PM 42.6960 -86.2010 226° Southwest 350 403 21,000 -1,380 Descending FlightAware
03:32PM 42.6550 -86.2610 227° Southwest 349 402 20,100 -1,380 Descending FlightAware
03:32PM 42.6420 -86.2940 242° Southwest 335 386 19,800 -1,260 Descending FlightAware
03:32PM 42.6310 -86.3480 255° West 331 381 19,200 -1,440 Descending FlightAware
03:33PM 42.6160 -86.4300 256° West 331 381 18,200 -1,440 Descending FlightAware
03:34PM 42.6010 -86.5110 256° West 328 377 17,300 -1,440 Descending FlightAware
03:34PM 42.5850 -86.5970 256° West 322 371 16,300 -1,500 Descending FlightAware
03:35PM 42.5720 -86.6650 255° West 317 365 15,400 -1,440 Descending FlightAware
03:35PM 42.5610 -86.7200 255° West 317 365 14,800 -1,380 Descending FlightAware
03:36PM 42.5390 -86.8030 250° West 320 368 13,800 -1,380 Descending FlightAware
03:37PM 42.5210 -86.8690 250° West 319 367 13,000 -1,380 Descending FlightAware
03:38PM 42.4990 -86.9510 250° West 310 357 12,000 -1,620 Descending FlightAware
03:38PM 42.4770 -87.0320 250° West 312 359 10,700 -1,260 Descending FlightAware
03:39PM 42.4560 -87.1080 249° West 309 356 10,200 -600 Descending FlightAware
03:40PM 42.4370 -87.1760 249° West 278 320 9,900 -720 Descending FlightAware
03:40PM 42.4290 -87.2050 250° West 275 316 9,500 -960 Descending FlightAware
03:40PM 42.4200 -87.2270 241° Southwest 271 312 9,400 -900 Descending FlightAware
03:40PM 42.4050 -87.2430 218° Southwest 278 320 9,100 -660 Descending FlightAware
03:41PM 42.3880 -87.2490 195° South 291 335 9,100 -180 Level FlightAware
03:41PM 42.3570 -87.2510 183° South 295 339 9,000 -480 Descending FlightAware
03:41PM 42.3340 -87.2520 182° South 287 330 8,800 -1,260 Descending FlightAware
03:42PM 42.2980 -87.2540 182° South 289 333 8,100 -1,440 Descending FlightAware
03:42PM 42.2790 -87.2550 182° South 287 330 7,800 -1,320 Descending FlightAware
03:43PM 42.2360 -87.2570 182° South 290 334 7,100 -960 Descending FlightAware
03:43PM 42.2100 -87.2580 182° South 291 335 7,000 -120 Descending FlightAware
03:43PM 42.1620 -87.2610 183° South 284 327 7,000  Level FlightAware
03:44PM 42.1410 -87.2620 182° South 286 329 7,000 120 Level FlightAware
03:44PM 42.1090 -87.2640 183° South 288 331 7,100  Climbing FlightAware
03:45PM 42.0720 -87.2670 183° South 280 322 7,000  Descending FlightAware
03:45PM 42.0370 -87.2700 184° South 254 292 7,100  Climbing FlightAware
03:45PM 42.0240 -87.2740 193° South 243 280 7,000 -240 Descending FlightAware
03:45PM 42.0120 -87.2860 217° Southwest 232 267 7,000  Level FlightAware
03:46PM 42.0050 -87.3060 245° Southwest 221 254 7,000  Level FlightAware
03:46PM 42.0010 -87.3250 254° West 220 253 7,000 60 Level FlightAware
03:47PM 42.0030 -87.3800 273° West 219 252 7,100 60 Climbing FlightAware
03:47PM 42.0040 -87.3960 275° West 218 251 7,100 -600 Level FlightAware
03:47PM 42.0080 -87.4410 277° West 215 247 6,700 -1,080 Descending FlightAware
03:48PM 42.0030 -87.4880 262° West 218 251 5,900 -1,080 Descending FlightAware
03:48PM 41.9950 -87.5180 250° West 214 246 5,600 -900 Descending FlightAware
03:49PM 41.9900 -87.5370 251° West 220 253 5,300 -720 Descending FlightAware
03:49PM 41.9830 -87.5820 258° West 218 251 5,100 -840 Descending FlightAware
03:50PM 41.9840 -87.6360 271° West 188 216 4,300 -1,140 Descending FlightAware
03:50PM 41.9840 -87.6680 270° West 181 208 3,800 -1,080 Descending FlightAware
03:51PM 41.9840 -87.6940 270° West 176 203 3,400 -900 Descending FlightAware
03:51PM 41.9840 -87.7120 270° West 178 205 3,200 -840 Descending FlightAware
03:52PM 41.9840 -87.7430 270° West 185 213 2,800 -960 Descending FlightAware
03:52PM 41.9840 -87.7710 270° West 178 205 2,400 -960 Descending FlightAware
03:52PM 41.9840 -87.7990 270° West 166 191 2,000 -960 Descending FlightAware
03:53PM 41.9840 -87.8090 270° West 156 180 1,800 -840 Descending FlightAware
03:53PM 41.9840 -87.8410 270° West 145 167 1,400 -720 Descending FlightAware
03:53PM 41.9840 -87.8550 270° West 142 163 1,200 -720 Descending FlightAware
03:54PM 41.9840 -87.8760 270° West 132 152 900 -780 Descending FlightAware
03:54PM 41.9840 -87.8880 270° West 135 155 700 -900 Descending FlightAware
03:55PM 41.9840 -87.9090 270° West 19 22 -960 Descending FlightAware
03:55PM 41.9820 -87.9120 228° Southwest 21 24  Level FlightAware
03:56PM 41.9780 -87.9140 200° South 24 28  Level FlightAware
03:56PM 41.9770 -87.9140 180° South 16 18  Level FlightAware